When you browse on this site, cookies collect data to enhance your experience and personalize the content and advertising you see.
Visit our Privacy Policy to learn more. By continuing to use the site, you agree to this use of cookies and data.
  • In Portugal
  • List of Countries
  • For 7 days
  • Water Temperature
  • Weather Map
  • Weather Widgets
  • user-avatar
    Login

    Hourly Weather Belize

    Today, 27 February, Thursday

    Time Temperature Precipitation Wind Pressure Humidity
    00:00 +23°C° 2.1 mm 9 mps 762 mmHg 98%
    01:00 +23°C° 0.8 mm 9 mps 762 mmHg 98%
    02:00 +22°C° 0.8 mm 9 mps 762 mmHg 97%
    03:00 +22°C° 0.8 mm 9 mps 762 mmHg 97%
    04:00 +21°C° 0.4 mm 9 mps 762 mmHg 96%
    05:00 +21°C° 0.4 mm 9 mps 763 mmHg 95%
    06:00 +21°C° 0.4 mm 9 mps 763 mmHg 94%
    07:00 +19°C° 0.2 mm 9 mps 764 mmHg 90%
    08:00 +20°C° 0.2 mm 8 mps 765 mmHg 86%
    09:00 +20°C° 0.2 mm 8 mps 766 mmHg 82%
    10:00 +20°C° 0.1 mm 7 mps 766 mmHg 84%
    11:00 +20°C° 0.1 mm 7 mps 766 mmHg 86%
    12:00 +20°C° 0.1 mm 7 mps 766 mmHg 87%
    13:00 +20°C° 0 mm 7 mps 766 mmHg 86%
    14:00 +20°C° 0 mm 7 mps 766 mmHg 84%
    15:00 +21°C° 0 mm 6 mps 765 mmHg 83%
    16:00 +21°C° 0 mm 6 mps 765 mmHg 81%
    17:00 +20°C° 0 mm 5 mps 765 mmHg 78%
    18:00 +20°C° 0 mm 4 mps 766 mmHg 76%
    19:00 +20°C° 0 mm 4 mps 766 mmHg 77%
    20:00 +20°C° 0 mm 4 mps 766 mmHg 77%
    21:00 +20°C° 0 mm 4 mps 767 mmHg 78%
    22:00 +20°C° 0 mm 4 mps 767 mmHg 79%
    23:00 +20°C° 0 mm 4 mps 767 mmHg 80%

    Tomorrow, 28 February, Friday

    Time Temperature Precipitation Wind Pressure Humidity
    00:00 +20°C° 0 mm 5 mps 767 mmHg 81%
    01:00 +20°C° 0 mm 5 mps 766 mmHg 80%
    02:00 +20°C° 0 mm 5 mps 766 mmHg 79%
    03:00 +20°C° 0 mm 6 mps 766 mmHg 78%
    04:00 +19°C° 0 mm 6 mps 766 mmHg 77%
    05:00 +19°C° 0 mm 6 mps 766 mmHg 76%
    06:00 +17°C° 0 mm 6 mps 766 mmHg 76%
    07:00 +19°C° 0 mm 5 mps 767 mmHg 76%
    08:00 +19°C° 0 mm 5 mps 767 mmHg 76%
    09:00 +19°C° 0 mm 5 mps 768 mmHg 77%
    10:00 +21°C° 0 mm 5 mps 768 mmHg 69%
    11:00 +23°C° 0 mm 5 mps 767 mmHg 62%
    12:00 +26°C° 0 mm 5 mps 767 mmHg 54%
    13:00 +26°C° 0 mm 5 mps 766 mmHg 55%
    14:00 +26°C° 0 mm 4 mps 766 mmHg 56%
    15:00 +26°C° 0 mm 4 mps 765 mmHg 57%
    16:00 +25°C° 0 mm 4 mps 765 mmHg 61%
    17:00 +23°C° 0 mm 4 mps 765 mmHg 64%
    18:00 +22°C° 0 mm 4 mps 766 mmHg 68%
    19:00 +22°C° 0 mm 4 mps 766 mmHg 68%
    20:00 +22°C° 0 mm 4 mps 766 mmHg 68%
    21:00 +22°C° 0 mm 4 mps 767 mmHg 68%
    22:00 +21°C° 0.1 mm 4 mps 767 mmHg 69%
    23:00 +21°C° 0.1 mm 5 mps 767 mmHg 70%

    Day after tomorrow, 29 February, Saturday

    Time Temperature Precipitation Wind Pressure Humidity
    00:00 +21°C° 0.1 mm 6 mps 767 mmHg 71%
    01:00 +21°C° 0 mm 6 mps 766 mmHg 71%
    02:00 +20°C° 0 mm 6 mps 766 mmHg 72%
    03:00 +20°C° 0 mm 6 mps 766 mmHg 73%
    04:00 +19°C° 0 mm 6 mps 766 mmHg 75%
    05:00 +19°C° 0 mm 6 mps 766 mmHg 78%
    06:00 +19°C° 0 mm 6 mps 766 mmHg 80%
    07:00 +19°C° 0 mm 6 mps 767 mmHg 78%
    08:00 +20°C° 0 mm 6 mps 768 mmHg 75%
    09:00 +20°C° 0 mm 6 mps 768 mmHg 73%
    10:00 +22°C° 0 mm 6 mps 768 mmHg 67%
    11:00 +23°C° 0 mm 5 mps 767 mmHg 61%
    12:00 +26°C° 0 mm 5 mps 767 mmHg 54%
    13:00 +26°C° 0 mm 5 mps 766 mmHg 53%
    14:00 +27°C° 0 mm 5 mps 766 mmHg 52%
    15:00 +28°C° 0 mm 5 mps 765 mmHg 51%
    16:00 +26°C° 0 mm 6 mps 765 mmHg 59%
    17:00 +24°C° 0 mm 6 mps 765 mmHg 67%
    18:00 +22°C° 0 mm 6 mps 765 mmHg 75%
    19:00 +22°C° 0.5 mm 6 mps 766 mmHg 79%
    20:00 +21°C° 0.5 mm 7 mps 766 mmHg 83%
    21:00 +21°C° 0.5 mm 7 mps 766 mmHg 88%
    22:00 +21°C° 0.6 mm 7 mps 766 mmHg 89%
    23:00 +20°C° 0.6 mm 7 mps 766 mmHg 91%

    1 March, Sunday

    Time Temperature Precipitation Wind Pressure Humidity
    00:00 +20°C° 0.6 mm 7 mps 766 mmHg 92%
    01:00 +20°C° 0.1 mm 7 mps 765 mmHg 94%
    02:00 +19°C° 0.1 mm 6 mps 764 mmHg 96%
    03:00 +19°C° 0.1 mm 6 mps 764 mmHg 97%
    04:00 +19°C° 0.1 mm 6 mps 764 mmHg 97%
    05:00 +19°C° 0.1 mm 6 mps 764 mmHg 97%
    06:00 +19°C° 0.1 mm 6 mps 764 mmHg 97%
    07:00 +20°C° 0.1 mm 6 mps 765 mmHg 93%
    08:00 +21°C° 0.1 mm 6 mps 765 mmHg 89%
    09:00 +23°C° 0.1 mm 6 mps 765 mmHg 85%
    10:00 +24°C° 0.2 mm 6 mps 765 mmHg 82%
    11:00 +26°C° 0.2 mm 6 mps 765 mmHg 78%
    12:00 +26°C° 0.2 mm 6 mps 764 mmHg 75%
    13:00 +27°C° 0.1 mm 6 mps 763 mmHg 70%
    14:00 +28°C° 0.1 mm 6 mps 763 mmHg 65%
    15:00 +28°C° 0.1 mm 6 mps 762 mmHg 61%
    16:00 +27°C° 0.1 mm 6 mps 762 mmHg 69%
    17:00 +24°C° 0.1 mm 6 mps 762 mmHg 77%
    18:00 +22°C° 0.1 mm 6 mps 762 mmHg 86%
    19:00 +22°C° 0.1 mm 6 mps 762 mmHg 90%
    20:00 +21°C° 0.1 mm 6 mps 763 mmHg 93%
    21:00 +20°C° 0.1 mm 6 mps 763 mmHg 97%
    22:00 +20°C° 0.1 mm 6 mps 763 mmHg 98%
    23:00 +20°C° 0.1 mm 6 mps 762 mmHg 98%

    2 March, Monday

    Time Temperature Precipitation Wind Pressure Humidity
    00:00 +21°C° 0.1 mm 6 mps 762 mmHg 98%
    01:00 +20°C° 0.1 mm 6 mps 761 mmHg 98%
    02:00 +20°C° 0.1 mm 6 mps 761 mmHg 98%
    03:00 +20°C° 0.1 mm 6 mps 760 mmHg 98%
    04:00 +20°C° 0.1 mm 6 mps 760 mmHg 98%
    05:00 +20°C° 0.1 mm 6 mps 761 mmHg 98%
    06:00 +21°C° 0.1 mm 6 mps 761 mmHg 98%
    07:00 +22°C° 0.1 mm 6 mps 761 mmHg 93%
    08:00 +24°C° 0.1 mm 6 mps 761 mmHg 88%
    09:00 +27°C° 0.1 mm 6 mps 762 mmHg 83%
    10:00 +27°C° 0 mm 6 mps 761 mmHg 76%
    11:00 +28°C° 0 mm 6 mps 761 mmHg 69%
    12:00 +29°C° 0 mm 6 mps 761 mmHg 63%
    13:00 +29°C° 0 mm 5 mps 760 mmHg 64%
    14:00 +29°C° 0 mm 5 mps 759 mmHg 65%
    15:00 +29°C° 0 mm 5 mps 759 mmHg 67%
    16:00 +27°C° 0 mm 5 mps 759 mmHg 72%
    17:00 +26°C° 0 mm 5 mps 759 mmHg 78%
    18:00 +25°C° 0 mm 5 mps 759 mmHg 83%
    19:00 +23°C° 0 mm 5 mps 759 mmHg 87%
    20:00 +23°C° 0 mm 6 mps 759 mmHg 90%
    21:00 +22°C° 0 mm 6 mps 759 mmHg 94%
    22:00 +23°C° 0.1 mm 6 mps 759 mmHg 94%
    23:00 +23°C° 0.1 mm 7 mps 758 mmHg 93%

    3 March, Tuesday

    Time Temperature Precipitation Wind Pressure Humidity
    00:00 +24°C° 0.1 mm 7 mps 758 mmHg 93%
    01:00 +24°C° 0.2 mm 7 mps 758 mmHg 95%
    02:00 +24°C° 0.2 mm 7 mps 757 mmHg 96%
    03:00 +24°C° 0.2 mm 7 mps 757 mmHg 98%
    04:00 +24°C° 0.1 mm 8 mps 757 mmHg 98%
    05:00 +24°C° 0.1 mm 8 mps 757 mmHg 98%
    06:00 +24°C° 0.1 mm 8 mps 757 mmHg 98%
    07:00 +27°C° 0 mm 8 mps 758 mmHg 89%
    08:00 +28°C° 0 mm 8 mps 758 mmHg 81%
    09:00 +31°C° 0 mm 8 mps 759 mmHg 73%
    10:00 +33°C° 0 mm 7 mps 758 mmHg 66%
    11:00 +34°C° 0 mm 7 mps 758 mmHg 59%
    12:00 +35°C° 0 mm 6 mps 758 mmHg 51%
    13:00 +35°C° 0 mm 6 mps 757 mmHg 52%
    14:00 +34°C° 0 mm 6 mps 756 mmHg 53%
    15:00 +34°C° 0 mm 6 mps 756 mmHg 54%
    16:00 +32°C° 0 mm 6 mps 756 mmHg 63%
    17:00 +29°C° 0 mm 7 mps 756 mmHg 71%
    18:00 +27°C° 0 mm 8 mps 756 mmHg 80%
    19:00 +27°C° 0 mm 8 mps 756 mmHg 83%
    20:00 +27°C° 0 mm 8 mps 756 mmHg 86%
    21:00 +27°C° 0 mm 8 mps 757 mmHg 89%
    22:00 +27°C° 0 mm 8 mps 757 mmHg 90%
    23:00 +27°C° 0 mm 8 mps 757 mmHg 91%
    Show more